Location: �terpigny
(49.8910°N, 2.9249°E)
Time: 07:52:53
(UTC+00:00)

NANOSAT C BR1 - Pass Details

Date: 08 July 2022
Orbit: 584 x 599 km, 98.0° (Epoch: 14 August)

Event Time Altitude Azimuth Distance (km) Brightness Sun altitude
Rises 02:11:47 0° 13° (NNE) 2,856 ? -11.4°
Reaches altitude 10° 02:13:57 10° 12° (NNE) 1,951 ? -11.2°
Maximum altitude 02:18:12 83° 286° (WNW) 612 ? -10.8°
Enters shadow 02:21:52 14° 199° (SSW) 1,712 ? -10.5°
